This is the latest recevied weather packets stored in our database for station/object DB0RV-13. If no packets are shown the sender has not sent any weather packets the latest 10 day(s).
| Time | Temp. | Humidity | Pressure | Rain* | Wind** | Luminosity | Snow |
|---|---|---|---|---|---|---|---|
| 1777550402 | 14.44° C | 30% | 1021.7 hPa | - | - | - | - |
| 1777550102 | 13.89° C | 31% | 1021.6 hPa | - | - | - | - |
| 1777549802 | 13.89° C | 32% | 1021.7 hPa | - | - | - | - |
| 1777549502 | 14.44° C | 32% | 1021.6 hPa | - | - | - | - |
| 1777549202 | 13.89° C | 33% | 1021.5 hPa | - | - | - | - |
| 1777548903 | 13.89° C | 31% | 1021.8 hPa | - | - | - | - |
| 1777548602 | 14.44° C | 31% | 1021.7 hPa | - | - | - | - |
| 1777548302 | 13.89° C | 31% | 1021.6 hPa | - | - | - | - |
| 1777548001 | 13.33° C | 33% | 1021.6 hPa | - | - | - | - |
| 1777547702 | 13.33° C | 32% | 1021.6 hPa | - | - | - | - |
| 1777547401 | 13.33° C | 34% | 1021.8 hPa | - | - | - | - |
| 1777547102 | 13.33° C | 33% | 1021.8 hPa | - | - | - | - |
| 1777546803 | 13.89° C | 34% | 1021.6 hPa | - | - | - | - |
| 1777546502 | 12.78° C | 34% | 1021.6 hPa | - | - | - | - |
| 1777546202 | 12.78° C | 32% | 1021.8 hPa | - | - | - | - |
| 1777545903 | 12.78° C | 34% | 1021.8 hPa | - | - | - | - |
| 1777545602 | 12.78° C | 34% | 1021.9 hPa | - | - | - | - |
| 1777545302 | 12.78° C | 34% | 1021.8 hPa | - | - | - | - |
| 1777545002 | 12.78° C | 34% | 1021.8 hPa | - | - | - | - |
| 1777544702 | 12.78° C | 35% | 1021.9 hPa | - | - | - | - |
| 1777544404 | 12.22° C | 35% | 1021.8 hPa | - | - | - | - |
| 1777544101 | 12.22° C | 35% | 1021.9 hPa | - | - | - | - |
| 1777543802 | 11.67° C | 36% | 1021.9 hPa | - | - | - | - |
| 1777543502 | 12.22° C | 36% | 1021.9 hPa | - | - | - | - |
| 1777543202 | 11.67° C | 36% | 1022 hPa | - | - | - | - |
* Rain since midnight (hover to see other rain measurements)
** Current wind speed in m/s (hover to see current wind gust speed)